• In Portugal
  • List of Countries
  • For 7 days
  • Water Temperature
  • Satellite Maps
  • Weather Map
  • Weather Widgets
  • user-avatar
    Login

    Hourly Weather Chwaliszow

    Today, 18 July, Wednesday

    Time Temperature Precipitation Wind Pressure Humidity
    00:00 +17°C° 0.1 mm 4 mps 728 mmHg 94%
    01:00 +17°C° 0 mm 4 mps 728 mmHg 95%
    02:00 +17°C° 0.2 mm 4 mps 727 mmHg 94%
    03:00 +16°C° 0.2 mm 5 mps 727 mmHg 94%
    04:00 +16°C° 0.2 mm 5 mps 727 mmHg 94%
    05:00 +16°C° 0.5 mm 6 mps 728 mmHg 93%
    06:00 +16°C° 0.5 mm 6 mps 728 mmHg 93%
    07:00 +17°C° 0.5 mm 6 mps 728 mmHg 92%
    08:00 +17°C° 0.9 mm 6 mps 728 mmHg 92%
    09:00 +17°C° 0.9 mm 7 mps 728 mmHg 91%
    10:00 +17°C° 0.9 mm 7 mps 729 mmHg 91%
    11:00 +17°C° 0.7 mm 7 mps 729 mmHg 90%
    12:00 +18°C° 0.7 mm 7 mps 729 mmHg 90%
    13:00 +19°C° 0.7 mm 6 mps 729 mmHg 89%
    14:00 +19°C° 0.5 mm 6 mps 729 mmHg 88%
    15:00 +19°C° 0.5 mm 6 mps 730 mmHg 87%
    16:00 +20°C° 0.5 mm 5 mps 730 mmHg 86%
    17:00 +20°C° 0.4 mm 5 mps 730 mmHg 87%
    18:00 +19°C° 0.4 mm 4 mps 730 mmHg 88%
    19:00 +19°C° 0.4 mm 3 mps 730 mmHg 89%
    20:00 +19°C° 0.2 mm 3 mps 731 mmHg 90%
    21:00 +18°C° 0.2 mm 3 mps 731 mmHg 91%
    22:00 +18°C° 0.2 mm 3 mps 731 mmHg 92%
    23:00 +17°C° 0.1 mm 3 mps 731 mmHg 93%

    Tomorrow, 19 July, Thursday

    Time Temperature Precipitation Wind Pressure Humidity
    00:00 +17°C° 0.1 mm 3 mps 731 mmHg 93%
    01:00 +17°C° 0.1 mm 3 mps 731 mmHg 93%
    02:00 +17°C° 0 mm 3 mps 731 mmHg 94%
    03:00 +17°C° 0 mm 3 mps 731 mmHg 94%
    04:00 +15°C° 0 mm 4 mps 731 mmHg 95%
    05:00 +17°C° 0 mm 4 mps 731 mmHg 92%
    06:00 +17°C° 0 mm 5 mps 732 mmHg 90%
    07:00 +17°C° 0 mm 5 mps 732 mmHg 87%
    08:00 +19°C° 0.1 mm 5 mps 732 mmHg 84%
    09:00 +20°C° 0.1 mm 5 mps 732 mmHg 81%
    10:00 +20°C° 0.1 mm 5 mps 732 mmHg 78%
    11:00 +20°C° 0.3 mm 5 mps 732 mmHg 78%
    12:00 +21°C° 0.3 mm 5 mps 732 mmHg 78%
    13:00 +21°C° 0.3 mm 4 mps 732 mmHg 78%
    14:00 +21°C° 0.2 mm 4 mps 732 mmHg 77%
    15:00 +21°C° 0.2 mm 4 mps 732 mmHg 76%
    16:00 +22°C° 0.2 mm 4 mps 732 mmHg 76%
    17:00 +21°C° 0.1 mm 4 mps 732 mmHg 78%
    18:00 +21°C° 0.1 mm 4 mps 732 mmHg 80%
    19:00 +20°C° 0.1 mm 3 mps 732 mmHg 82%
    20:00 +19°C° 0 mm 3 mps 732 mmHg 86%
    21:00 +18°C° 0 mm 3 mps 732 mmHg 90%
    22:00 +16°C° 0 mm 2 mps 733 mmHg 94%
    23:00 +16°C° 0 mm 2 mps 733 mmHg 94%

    Day after tomorrow, 20 July, Friday

    Time Temperature Precipitation Wind Pressure Humidity
    00:00 +16°C° 0 mm 2 mps 733 mmHg 94%
    01:00 +16°C° 0 mm 2 mps 733 mmHg 94%
    02:00 +16°C° 0 mm 2 mps 732 mmHg 94%
    03:00 +16°C° 0 mm 2 mps 732 mmHg 94%
    04:00 +16°C° 0 mm 2 mps 732 mmHg 95%
    05:00 +16°C° 0 mm 3 mps 732 mmHg 90%
    06:00 +17°C° 0 mm 3 mps 732 mmHg 86%
    07:00 +18°C° 0 mm 3 mps 733 mmHg 81%
    08:00 +19°C° 0 mm 3 mps 733 mmHg 75%
    09:00 +21°C° 0 mm 3 mps 733 mmHg 68%
    10:00 +22°C° 0 mm 3 mps 733 mmHg 62%
    11:00 +24°C° 0 mm 3 mps 733 mmHg 59%
    12:00 +25°C° 0 mm 3 mps 732 mmHg 55%
    13:00 +26°C° 0 mm 3 mps 732 mmHg 52%
    14:00 +26°C° 0 mm 3 mps 732 mmHg 51%
    15:00 +26°C° 0 mm 2 mps 732 mmHg 49%
    16:00 +26°C° 0 mm 2 mps 731 mmHg 47%
    17:00 +25°C° 0 mm 2 mps 731 mmHg 53%
    18:00 +24°C° 0 mm 2 mps 731 mmHg 59%
    19:00 +23°C° 0 mm 1 mps 731 mmHg 65%
    20:00 +21°C° 0 mm 1 mps 731 mmHg 68%
    21:00 +20°C° 0 mm 1 mps 731 mmHg 72%
    22:00 +18°C° 0 mm 1 mps 731 mmHg 76%
    23:00 +18°C° 0 mm 1 mps 730 mmHg 78%

    21 July, Saturday

    Time Temperature Precipitation Wind Pressure Humidity
    00:00 +16°C° 0 mm 1 mps 730 mmHg 80%
    01:00 +16°C° 0 mm 1 mps 730 mmHg 82%
    02:00 +16°C° 0 mm 1 mps 730 mmHg 83%
    03:00 +16°C° 0 mm 1 mps 730 mmHg 84%
    04:00 +15°C° 0 mm 1 mps 729 mmHg 84%
    05:00 +18°C° 0 mm 1 mps 730 mmHg 80%
    06:00 +20°C° 0 mm 1 mps 730 mmHg 75%
    07:00 +21°C° 0 mm 1 mps 730 mmHg 70%
    08:00 +23°C° 0 mm 1 mps 730 mmHg 65%
    09:00 +24°C° 0 mm 2 mps 730 mmHg 59%
    10:00 +25°C° 0 mm 2 mps 730 mmHg 54%
    11:00 +26°C° 0 mm 2 mps 730 mmHg 52%
    12:00 +27°C° 0 mm 2 mps 729 mmHg 49%
    13:00 +27°C° 0 mm 2 mps 729 mmHg 47%
    14:00 +27°C° 0 mm 2 mps 729 mmHg 48%
    15:00 +27°C° 0 mm 1 mps 729 mmHg 49%
    16:00 +27°C° 0 mm 1 mps 729 mmHg 50%
    17:00 +26°C° 0.1 mm 1 mps 729 mmHg 57%
    18:00 +24°C° 0.1 mm 2 mps 729 mmHg 63%
    19:00 +23°C° 0.1 mm 2 mps 728 mmHg 70%
    20:00 +21°C° 0 mm 2 mps 728 mmHg 72%
    21:00 +20°C° 0 mm 2 mps 728 mmHg 75%
    22:00 +20°C° 0 mm 1 mps 729 mmHg 77%
    23:00 +19°C° 0 mm 1 mps 728 mmHg 78%

    22 July, Sunday

    Time Temperature Precipitation Wind Pressure Humidity
    00:00 +19°C° 0 mm 1 mps 728 mmHg 79%
    01:00 +18°C° 0 mm 1 mps 728 mmHg 80%
    02:00 +18°C° 0 mm 1 mps 728 mmHg 81%
    03:00 +16°C° 0 mm 1 mps 728 mmHg 82%
    04:00 +16°C° 0 mm 1 mps 728 mmHg 82%
    05:00 +18°C° 0 mm 1 mps 728 mmHg 78%
    06:00 +20°C° 0 mm 1 mps 729 mmHg 75%
    07:00 +21°C° 0 mm 1 mps 729 mmHg 71%
    08:00 +22°C° 0 mm 1 mps 729 mmHg 68%
    09:00 +23°C° 0 mm 2 mps 729 mmHg 65%
    10:00 +24°C° 0 mm 2 mps 729 mmHg 62%
    11:00 +25°C° 0.1 mm 2 mps 729 mmHg 59%
    12:00 +25°C° 0.1 mm 3 mps 729 mmHg 56%
    13:00 +26°C° 0.1 mm 4 mps 729 mmHg 53%
    14:00 +26°C° 0.2 mm 4 mps 729 mmHg 53%
    15:00 +26°C° 0.2 mm 4 mps 729 mmHg 52%
    16:00 +26°C° 0.2 mm 4 mps 729 mmHg 52%
    17:00 +23°C° 0 mm 4 mps 729 mmHg 56%
    18:00 +22°C° 0 mm 3 mps 730 mmHg 61%
    19:00 +21°C° 0 mm 2 mps 730 mmHg 65%
    20:00 +20°C° 0 mm 2 mps 730 mmHg 68%
    21:00 +19°C° 0 mm 2 mps 730 mmHg 70%
    22:00 +18°C° 0 mm 1 mps 730 mmHg 73%
    23:00 +17°C° 0 mm 2 mps 731 mmHg 75%

    23 July, Monday

    Time Temperature Precipitation Wind Pressure Humidity
    00:00 +16°C° 0 mm 2 mps 731 mmHg 76%
    01:00 +16°C° 0 mm 2 mps 731 mmHg 78%
    02:00 +16°C° 0 mm 2 mps 731 mmHg 81%
    03:00 +15°C° 0 mm 2 mps 731 mmHg 83%
    04:00 +15°C° 0 mm 2 mps 731 mmHg 86%
    05:00 +16°C° 0 mm 2 mps 732 mmHg 82%
    06:00 +18°C° 0 mm 2 mps 732 mmHg 78%
    07:00 +19°C° 0 mm 2 mps 733 mmHg 74%
    08:00 +21°C° 0 mm 2 mps 733 mmHg 69%
    09:00 +22°C° 0 mm 3 mps 733 mmHg 64%
    10:00 +24°C° 0 mm 3 mps 733 mmHg 58%
    11:00 +25°C° 0.1 mm 3 mps 733 mmHg 56%
    12:00 +25°C° 0.1 mm 3 mps 733 mmHg 53%
    13:00 +26°C° 0.1 mm 3 mps 733 mmHg 51%
    14:00 +26°C° 0 mm 3 mps 732 mmHg 51%
    15:00 +26°C° 0 mm 3 mps 732 mmHg 51%
    16:00 +26°C° 0 mm 3 mps 732 mmHg 51%
    17:00 +25°C° 0 mm 3 mps 732 mmHg 56%
    18:00 +24°C° 0 mm 2 mps 732 mmHg 62%
    19:00 +21°C° 0 mm 2 mps 732 mmHg 67%
    20:00 +21°C° 0 mm 1 mps 732 mmHg 70%
    21:00 +20°C° 0 mm 1 mps 732 mmHg 74%
    22:00 +18°C° 0 mm 1 mps 732 mmHg 77%
    23:00 +18°C° 0 mm 1 mps 732 mmHg 79%
    Show more